Location: Feydey
(46.3431°N, 7.0106°E)
Time: 02:56:24
(UTC+00:00)

Cosmos 2297 - Visible Passes

Search period start: 23 October 2021 00:00
Search period end: 02 November 2021 00:00
Orbit: 834 x 860 km, 71.0° (Epoch: 22 October)

Date Brightness Start Highest point End Pass type
(mag) Time Alt. Az. Time Alt. Az. Time Alt. Az.
23 Oct 6.3 20:33:21 10° NNW 20:33:57 13° N 20:33:57 13° N visible
24 Oct 6.2 20:19:57 10° NNW 20:20:48 14° N 20:20:48 14° N visible
25 Oct 6.0 20:06:33 10° NNW 20:07:40 15° N 20:07:40 15° N visible
26 Oct 5.9 19:53:10 10° NNW 19:54:33 17° N 19:54:33 17° N visible
27 Oct 5.8 19:39:46 10° NNW 19:41:28 18° N 19:41:28 18° N visible
28 Oct 5.6 19:26:23 10° NNW 19:28:24 20° N 19:28:24 20° N visible
29 Oct 5.4 19:12:58 10° NNW 19:15:22 22° N 19:15:22 22° N visible
29 Oct 6.5 20:56:59 10° NW 20:57:17 11° NW 20:57:17 11° NW visible
30 Oct 5.2 18:59:35 10° NNW 19:02:21 24° N 19:02:21 24° N visible
30 Oct 6.4 20:43:34 10° NW 20:44:18 14° NW 20:44:18 14° NW visible
31 Oct 5.1 18:46:11 10° NNW 18:49:24 26° NNE 18:49:24 26° NNE visible
31 Oct 6.2 20:30:09 10° NW 20:31:20 16° NW 20:31:20 16° NW visible
01 Nov 4.9 18:32:48 10° N 18:36:29 28° NNE 18:36:29 28° NNE visible
01 Nov 6.0 20:16:44 10° NW 20:18:25 20° NW 20:18:25 20° NW visible
